RH
11 10 10 9 8 8 10 12 12 13 15 15 15 15 15 15 16 16 17 18 19 18 18 18 19 20 20 20 21 22 22 21 20 19 18 17 16 14 14 17 17 15 15 14 15 20 20 23 30 33 35 41 47 49 49 44 36 31 32 37 39 41 41 39 35 32 31 33 37 39 39 39 38 34 30 24 21 21 18 16 16 17 19 21 30
12 10 10 9 9 8 8 11 12 12 14 14 14 14 14 14 14 15 15 15 16 17 17 19 20 20 20 19 20 20 19 19 19 17 18 18 16 15 17 17 15 15 16 18 20 23 25 31 38 39 40 44 47 50 54 56 51 40 34 38 41 40 39 36 33 32 32 32 32 31 30 31 30 26 23 21 23 30 30 25 22 22 23 19 22
15 10 10 9 9 9 7 8 11 13 13 14 14 13 14 15 15 15 14 14 14 15 17 18 19 19 18 17 17 16 15 18 21 20 20 19 16 18 23 23 19 17 19 21 25 29 32 37 41 41 41 43 46 51 52 49 45 36 31 33 36 36 35 34 33 31 32 31 28 28 30 33 36 36 33 30 33 41 42 39 34 31 30 25 23
25 12 8 10 9 8 8 7 8 11 13 14 14 14 14 14 16 17 16 14 14 15 17 17 17 16 16 15 15 14 14 17 20 19 17 17 19 25 35 42 44 43 42 36 29 32 39 42 44 46 44 43 44 46 48 43 32 25 26 27 28 30 30 30 32 33 34 35 33 32 32 33 34 33 31 30 32 37 39 39 35 31 31 30 24
39 24 10 9 10 8 8 8 7 8 11 13 14 15 15 14 14 16 17 16 15 15 16 17 16 15 14 15 15 14 15 16 18 19 17 18 25 34 41 50 58 65 69 57 36 31 38 44 51 56 54 54 52 46 48 51 37 22 24 27 25 28 31 31 33 34 34 33 31 29 27 27 28 27 25 23 25 31 35 35 32 27 30 35 32
44 40 24 12 11 12 10 7 8 8 8 10 13 14 15 15 15 15 16 16 16 15 15 15 14 13 13 14 14 14 14 14 15 16 16 20 29 39 45 53 60 66 68 59 43 37 43 51 62 68 67 68 66 56 54 61 50 27 21 26 27 26 26 25 25 25 24 22 22 26 33 43 52 57 55 50 51 59 65 64 56 43 34 36 41
45 45 40 26 14 12 12 8 7 8 7 8 10 12 13 14 14 15 14 15 17 17 16 15 13 12 11 11 12 12 12 12 13 14 16 28 43 49 51 55 59 61 61 57 55 55 57 61 67 72 73 73 70 68 70 74 72 55 37 33 36 36 32 29 32 38 41 39 37 42 56 72 82 86 88 87 85 88 89 87 83 72 55 45 45
57 45 42 38 26 14 10 10 9 7 7 8 8 9 11 12 13 13 13 14 15 15 15 14 13 12 11 10 10 11 11 12 16 19 23 37 52 59 61 63 65 67 67 66 66 66 65 69 73 74 76 74 73 77 80 80 85 83 67 55 58 62 61 57 58 63 67 67 65 66 71 81 88 91 93 94 91 89 87 84 82 80 74 66 58
73 57 41 42 44 33 17 10 9 9 7 7 7 8 8 9 10 11 11 12 12 12 11 11 11 11 11 11 11 12 13 13 19 27 32 37 47 58 67 70 71 73 73 71 70 68 65 65 66 64 67 73 74 74 79 83 85 85 77 71 73 80 84 84 79 74 70 70 74 75 75 80 86 89 91 90 88 85 82 79 77 75 75 76 73
81 77 58 45 47 47 36 20 11 10 9 7 6 7 7 8 8 9 9 10 10 9 9 9 8 9 9 10 11 12 13 14 17 24 31 35 43 56 67 71 73 76 76 74 72 69 60 49 45 47 55 65 69 69 73 77 76 73 74 77 79 79 79 79 76 72 69 70 74 75 76 81 84 85 87 89 88 83 77 72 73 74 74 74 75
83 87 79 61 48 44 43 36 24 15 11 10 8 6 6 7 7 7 8 8 8 8 8 8 8 8 9 10 11 11 13 15 15 17 23 29 38 51 61 66 68 70 70 71 72 68 58 44 37 37 40 44 51 58 65 69 68 70 73 77 80 79 73 70 70 69 66 66 73 79 81 81 80 79 82 85 84 80 73 67 68 73 75 75 75
85 89 88 80 65 47 37 35 34 26 17 13 12 9 7 6 6 7 7 7 7 8 8 8 8 9 10 11 12 13 14 17 18 17 20 27 36 45 50 51 52 53 56 63 70 70 64 56 44 33 29 32 35 41 48 53 55 59 64 71 76 79 78 78 81 83 78 71 70 77 83 81 77 76 79 81 79 75 72 68 68 70 71 73 74
80 90 92 91 84 68 46 32 32 33 25 17 15 13 10 8 7 7 7 7 7 7 7 8 9 10 11 13 13 13 16 19 21 21 22 25 28 32 37 40 40 42 46 56 68 74 73 63 44 25 19 22 26 28 28 29 31 36 48 59 67 79 89 84 75 81 87 82 75 75 76 73 71 73 78 81 81 80 76 74 72 71 70 72 73
69 80 90 94 93 88 70 46 32 31 29 22 17 15 14 13 11 9 8 8 8 8 8 9 9 10 11 12 12 13 16 20 22 23 24 22 21 23 27 28 26 28 36 50 65 71 63 44 25 18 26 36 40 37 27 23 28 34 42 51 56 70 81 68 52 62 80 84 83 82 77 71 72 80 87 90 90 88 85 83 80 76 75 78 80
64 67 75 84 89 92 87 70 48 33 29 26 21 18 16 14 14 13 12 11 10 9 10 10 11 12 12 12 13 13 16 20 21 23 23 21 20 20 19 17 16 17 22 31 41 40 31 21 15 20 33 41 38 32 28 34 45 53 60 67 66 64 61 48 44 62 81 84 83 82 79 77 81 88 94 96 95 91 89 89 87 84 84 88 90
66 66 66 70 77 83 86 82 67 49 37 29 23 22 20 17 16 15 14 14 13 12 12 12 11 12 12 13 13 14 16 18 19 20 20 19 19 17 15 15 14 14 13 15 16 15 12 15 20 25 33 37 33 31 36 43 52 61 68 73 73 70 66 61 61 73 84 85 82 81 81 83 86 89 92 95 95 93 92 91 88 87 92 97 98
66 68 67 66 69 76 80 82 76 65 54 44 33 27 24 22 20 17 13 13 13 14 14 14 14 13 13 12 12 13 15 15 16 17 17 16 16 15 14 14 12 13 16 13 13 20 24 24 29 41 51 52 51 50 49 49 55 63 66 67 71 75 77 78 80 82 84 83 82 84 88 91 92 91 93 96 96 96 95 94 92 92 96 100 100
63 65 67 66 67 72 80 84 81 74 67 62 54 45 35 29 26 24 19 14 13 12 13 14 15 14 14 13 12 12 13 13 14 15 14 14 15 13 14 14 13 18 29 36 43 55 53 37 35 47 54 53 55 54 49 46 49 57 64 71 78 81 82 83 83 83 83 81 81 86 92 97 99 97 97 99 99 98 97 95 95 96 98 98 97
62 62 64 66 67 70 76 84 87 83 74 68 66 63 57 48 43 39 32 24 19 16 14 14 14 13 13 13 13 13 13 14 14 15 16 16 15 14 15 14 11 16 30 48 63 70 61 45 42 49 53 55 54 47 42 45 52 62 73 82 83 79 76 74 73 74 77 79 83 91 97 99 100 100 100 100 100 101 99 96 95 94 94 94 94
65 64 64 65 65 66 70 76 82 84 78 73 71 69 68 65 61 57 50 39 32 29 24 18 15 14 12 12 12 12 13 13 13 14 15 14 13 13 13 15 27 39 38 33 36 38 35 37 42 43 44 47 45 43 51 61 67 75 82 86 86 82 78 76 75 73 71 75 86 96 98 98 98 98 99 100 100 100 97 95 95 94 92 90 88
70 70 69 67 65 64 64 66 71 73 73 73 71 66 66 66 65 65 63 55 48 46 42 35 26 20 17 13 11 11 10 11 11 11 10 10 11 13 11 15 37 55 43 27 31 40 42 45 45 38 34 34 35 45 66 76 75 77 80 82 84 85 83 81 80 75 73 82 94 100 99 98 99 99 99 100 101 99 95 93 93 90 85 81 76
71 70 70 69 68 67 64 63 65 66 67 69 68 67 68 68 65 66 68 67 64 63 63 61 54 44 32 22 18 18 15 10 8 8 9 10 11 13 12 11 20 27 21 19 36 52 57 59 57 47 37 32 31 39 56 67 72 78 80 80 82 83 81 80 78 77 83 94 101 100 99 100 100 99 100 100 99 95 90 85 82 77 73 69 63
67 66 66 67 68 69 68 66 65 64 64 65 66 70 74 73 68 66 68 71 74 75 75 78 81 77 63 50 47 49 44 30 15 8 12 19 25 29 31 31 28 24 19 18 26 36 42 46 48 44 36 35 40 46 52 63 77 86 88 87 86 84 80 77 75 78 86 96 99 99 99 100 100 100 99 97 93 87 80 75 71 66 62 56 49
64 62 63 65 65 65 65 65 65 65 63 61 62 67 75 75 70 69 71 72 75 81 83 83 88 91 85 78 79 82 79 67 50 38 41 52 59 59 58 58 55 49 42 34 33 43 50 49 46 39 32 34 47 57 65 77 89 94 93 91 89 85 81 80 81 86 93 97 99 100 100 100 99 97 94 90 85 80 74 69 64 58 51 45 39
62 61 61 62 61 59 58 58 60 61 62 60 60 65 75 79 75 72 73 73 76 84 88 86 88 91 91 91 94 96 95 92 84 75 78 87 89 81 77 77 76 73 68 60 55 63 75 77 72 63 54 54 61 72 83 94 98 96 94 93 89 85 84 87 91 95 98 99 99 98 97 95 93 89 85 79 74 68 61 55 48 42 37 32 27
60 60 58 56 53 51 49 48 51 53 55 58 60 63 71 79 81 80 79 77 80 87 90 88 88 89 89 93 98 97 94 95 93 89 90 96 97 92 90 92 91 88 86 82 77 79 88 92 90 86 85 84 85 88 95 100 100 97 95 93 90 89 93 98 100 100 99 97 94 90 85 79 73 65 57 50 43 37 31 27 23 20 18 16 14
54 58 57 54 50 47 43 41 42 43 45 49 53 59 65 73 82 88 89 88 89 91 94 95 96 95 95 96 97 94 91 93 95 96 96 98 97 97 98 99 97 95 93 93 93 93 94 96 96 97 97 97 97 99 100 100 100 98 96 96 97 97 96 92 87 81 75 69 63 56 49 42 35 28 23 19 16 14 12 11 11 10 10 10 9
46 51 55 54 51 46 41 38 37 36 37 39 43 49 56 63 73 82 86 89 91 92 96 99 97 95 95 93 91 92 94 97 98 99 100 100 98 99 100 100 99 98 98 99 99 99 98 99 100 100 100 99 100 101 100 99 100 101 99 96 90 80 68 58 49 42 36 31 27 23 19 16 12 10 9 8 8 8 8 8 8 8 8 7 7
36 42 48 52 52 48 42 38 35 33 33 33 34 38 44 50 57 63 69 76 82 85 92 96 95 95 96 94 94 96 97 99 100 99 99 100 98 98 100 100 100 100 100 100 100 100 100 100 100 100 100 100 101 100 99 97 95 90 81 69 56 45 38 32 27 22 18 15 13 11 10 9 8 7 7 7 7 8 8 8 8 7 7 7 7
30 36 41 45 48 48 43 38 35 35 38 38 36 37 43 50 54 55 56 60 65 70 75 79 83 91 95 94 96 100 99 99 100 99 98 100 99 99 100 100 100 100 100 100 100 99 99 100 100 100 100 100 99 95 89 80 69 57 45 34 27 24 22 19 16 13 11 10 9 8 8 7 7 7 7 8 8 8 8 8 7 7 7 7 7
25 30 34 38 42 44 42 38 36 42 54 59 52 46 50 59 64 61 55 50 48 57 71 79 84 94 98 94 94 98 101 100 99 98 99 99 99 100 100 100 100 100 100 100 100 100 100 100 100 100 99 95 87 76 64 50 38 28 22 18 16 16 14 12 11 9 8 8 8 8 8 7 7 8 8 8 8 8 8 8 7 7 8 7 8
23 27 30 33 36 39 40 38 36 43 61 73 67 57 59 68 72 71 67 57 46 49 66 78 84 93 99 97 92 93 97 99 99 99 99 99 99 100 100 100 100 100 100 100 100 100 100 100 100 98 92 81 68 54 42 32 24 20 18 16 15 13 11 10 10 8 8 8 7 7 7 7 8 8 8 8 8 8 8 8 8 8 8 8 9
23 27 32 33 34 36 37 36 36 43 60 76 75 67 71 82 85 82 80 76 69 70 78 81 81 87 95 98 98 97 99 101 101 101 100 100 99 100 99 99 100 100 100 100 100 100 100 100 98 90 76 62 51 42 34 28 24 22 20 17 15 14 12 11 10 9 8 8 7 8 8 8 9 9 8 8 8 8 8 8 8 9 9 9 10
24 29 34 37 38 37 37 36 36 43 60 79 86 83 84 92 96 94 93 92 93 96 99 95 92 94 98 101 101 100 101 101 100 101 100 100 99 99 99 99 100 100 99 100 100 100 99 96 89 78 63 52 45 39 35 32 28 26 23 20 17 14 11 10 9 8 8 8 8 9 9 8 8 8 8 8 8 8 8 9 9 10 10 11 11
29 34 40 43 43 41 40 41 42 46 57 73 86 91 92 92 91 90 91 93 92 91 89 87 88 93 97 100 101 100 101 101 100 99 99 99 100 100 99 99 100 100 100 100 99 97 92 86 78 69 60 53 47 43 39 36 32 27 23 18 14 12 10 9 9 9 9 9 9 8 8 8 8 8 8 8 8 8 9 10 11 11 12 12 13
44 54 57 56 55 52 50 52 55 58 61 65 72 82 88 88 83 78 75 75 76 75 72 72 75 82 89 94 97 98 97 97 96 96 98 99 100 99 99 100 100 99 98 95 92 86 80 72 65 58 52 48 44 41 37 33 27 22 18 15 13 12 11 11 11 10 9 9 8 8 8 8 8 8 8 9 9 10 11 12 12 13 13 14 15
67 81 83 80 78 76 73 74 75 75 74 73 75 81 86 85 83 81 79 79 81 83 83 83 85 89 92 96 98 99 98 98 98 99 100 100 100 100 99 98 96 93 89 83 77 71 65 59 54 51 49 46 42 37 32 26 21 18 17 16 15 14 13 12 11 10 9 9 9 9 9 9 9 9 10 11 12 12 13 14 14 15 16 17 17
64 73 83 91 95 91 88 89 88 84 81 81 82 86 88 84 80 80 82 83 86 89 92 94 95 96 97 97 97 97 96 95 95 95 94 94 94 92 90 87 84 79 74 70 66 62 59 57 53 49 45 39 34 28 24 21 20 19 18 17 15 14 12 11 10 10 10 9 9 10 9 9 10 11 12 13 14 14 15 16 17 18 18 18 18
70 64 69 80 85 81 80 85 88 86 85 86 86 86 84 79 76 75 76 77 77 79 82 84 86 87 87 87 86 84 83 83 82 82 81 81 80 79 77 75 73 70 68 66 64 61 57 52 46 40 35 30 27 25 24 22 21 19 17 15 14 12 12 11 10 10 10 10 10 10 10 11 12 14 15 15 16 17 18 19 19 20 19 18 17
75 70 66 69 73 73 71 72 77 83 89 90 86 81 75 73 75 78 78 78 78 79 79 78 78 78 77 77 76 75 75 75 75 75 76 76 76 76 75 73 71 69 66 61 57 52 46 41 36 33 31 29 27 25 23 20 18 16 14 13 12 12 11 11 10 10 10 10 10 10 12 13 15 16 17 19 20 20 21 21 20 19 18 16 15
56 69 75 73 71 74 75 71 71 78 87 89 85 79 77 78 83 87 87 84 80 78 77 75 74 73 72 71 71 71 71 72 72 73 74 74 73 71 69 66 62 57 52 46 42 38 34 31 29 26 24 22 21 19 17 16 14 14 13 13 12 12 11 11 11 10 10 11 12 13 15 17 18 19 21 22 23 23 22 21 19 18 16 15 14
34 56 78 84 81 78 79 79 78 80 85 90 92 90 89 89 91 92 91 88 84 80 77 74 72 72 72 71 70 69 69 69 68 67 66 63 60 56 52 48 44 40 37 34 32 30 27 25 23 21 20 19 18 17 16 15 14 14 13 12 12 12 11 11 11 11 12 14 16 18 19 20 22 23 24 24 24 23 22 20 18 16 15 14 12
18 31 56 78 86 82 79 82 88 91 92 94 97 98 97 97 97 95 93 90 86 83 81 78 75 73 72 71 70 68 66 63 61 57 53 48 43 39 35 33 32 32 31 30 28 27 25 24 22 21 20 18 17 16 15 14 14 13 13 13 12 12 11 12 13 15 17 19 20 21 23 24 25 26 26 26 24 22 20 19 17 15 13 12 10
17 17 28 47 65 79 89 94 97 98 99 98 97 96 97 98 99 97 94 91 88 84 82 81 78 75 72 69 67 64 61 57 52 47 43 39 36 34 33 33 32 31 30 28 26 25 23 21 20 18 17 16 16 15 15 14 14 14 13 12 12 12 14 16 17 19 20 22 23 26 28 29 29 28 27 25 23 21 19 17 15 13 11 9 8
21 20 20 23 36 62 88 101 100 99 101 102 99 96 97 99 99 96 93 91 87 84 83 82 80 79 76 73 68 63 58 53 48 44 41 38 36 35 33 31 30 28 26 24 23 21 20 19 18 17 16 16 16 15 15 15 14 14 13 13 14 16 18 20 21 23 24 27 30 32 32 31 30 28 26 24 22 19 16 14 12 10 8 7 6
24 24 24 22 23 37 64 90 101 100 98 100 100 99 99 100 98 96 94 91 87 85 85 86 86 84 79 73 67 61 54 48 42 38 35 33 31 30 29 28 27 26 25 23 21 20 19 18 18 17 17 17 17 16 16 15 14 14 15 17 19 21 22 23 26 29 32 34 35 34 33 31 29 27 24 22 18 15 13 10 8 7 6 6 7
33 31 29 28 24 22 38 70 95 102 100 101 101 99 100 100 98 96 96 94 91 90 90 88 85 79 71 64 58 51 45 40 38 35 34 34 33 32 31 30 28 26 24 23 22 21 20 20 19 19 18 17 16 15 15 15 16 19 21 22 24 25 26 29 32 35 37 37 36 34 32 30 27 24 20 17 13 11 9 7 6 7 8 8 9
42 41 37 35 29 22 32 64 91 97 95 97 96 93 95 99 99 97 97 97 96 95 90 83 77 70 63 56 51 46 44 43 41 39 37 37 35 34 32 30 28 26 24 23 22 22 21 21 20 19 17 16 16 17 18 21 23 24 25 25 26 27 30 34 38 39 39 37 35 33 30 26 22 18 14 11 9 7 7 7 8 9 10 10 9
43 45 45 43 33 24 37 66 83 78 76 83 90 92 96 99 98 98 99 99 97 94 86 76 70 67 63 59 57 55 53 48 43 40 39 38 36 34 32 29 27 26 26 25 25 25 24 22 21 19 18 18 20 22 25 26 27 27 27 28 30 33 37 40 41 40 39 36 33 29 24 19 15 12 9 8 7 7 8 10 11 11 10 10 9
31 36 42 48 48 48 59 74 78 75 81 92 97 97 99 100 99 100 101 98 96 94 88 79 74 73 73 71 65 59 53 48 44 42 41 39 36 34 33 32 33 34 33 32 30 27 23 21 19 19 21 23 26 29 30 30 29 29 31 34 37 41 43 43 41 39 36 32 26 21 16 12 9 8 7 7 8 10 11 12 12 11 10 9 9
30 29 30 37 51 73 91 96 90 87 93 99 98 98 100 100 100 101 100 97 94 93 92 89 87 86 83 76 66 58 54 52 49 47 46 45 44 44 44 43 41 38 34 30 26 22 20 21 23 25 29 31 32 32 32 31 32 35 39 42 45 45 44 42 39 35 29 22 16 12 10 8 8 8 8 9 11 13 13 12 11 9 9 9 10
Wind_Speed
21 20 19 18 17 17 16 15 14 14 14 14 14 13 13 13 14 14 15 15 15 15 15 15 16 16 16 16 16 15 15 14 13 12 12 12 12 12 12 12 11 11 10 8 6 4 4 5 6 7 6 7 8 9 9 9 10 10 10 10 11 11 12 13 14 15 15 14 14 15 16 17 18 19 20 21 21 21 21 20 20 20 20 19 17
22 22 21 20 19 18 17 17 15 15 14 14 14 14 14 14 14 14 14 14 15 15 15 16 16 16 16 16 16 15 15 14 14 14 13 13 14 14 13 12 12 11 9 6 5 6 7 7 8 7 7 7 8 9 9 11 12 12 12 12 12 12 13 14 15 15 15 15 15 16 16 17 18 18 19 20 20 20 20 19 19 19 20 21 18
22 23 22 21 21 20 19 18 17 16 16 15 15 15 15 15 15 14 14 14 15 15 15 16 16 16 16 16 16 16 15 15 15 15 15 14 14 13 12 12 11 10 7 7 8 10 10 9 9 9 9 9 10 10 10 11 12 12 12 13 13 13 13 14 15 15 16 16 16 16 17 17 17 17 18 18 18 18 18 18 19 19 19 20 20
22 23 23 23 22 21 20 19 19 18 17 17 17 16 16 16 16 16 15 15 15 16 16 16 16 16 17 17 17 17 16 16 15 15 13 12 12 12 12 12 11 10 8 9 11 12 11 11 11 11 12 12 12 12 11 12 13 13 13 13 13 13 14 14 15 15 16 17 17 17 18 18 18 18 18 18 18 18 19 19 19 20 20 19 19
23 22 23 24 23 22 22 21 20 20 19 19 19 18 18 17 17 17 17 17 17 17 17 17 17 18 18 18 18 17 17 16 15 13 13 13 14 14 13 12 12 11 11 12 13 14 14 13 13 13 14 14 14 13 12 13 15 15 14 14 14 14 15 15 16 16 17 18 18 18 19 19 19 19 19 19 19 19 20 20 21 21 21 19 18
23 23 23 23 23 23 22 22 22 22 22 21 21 20 19 19 18 18 19 19 19 19 19 19 19 19 19 19 18 18 18 16 15 15 15 16 16 15 14 13 13 13 14 15 15 15 14 14 15 15 16 16 15 14 13 14 16 16 15 15 15 15 16 16 17 18 18 18 18 18 18 19 19 20 20 20 20 20 21 22 22 23 22 21 19
24 24 24 23 23 23 23 23 23 23 24 23 23 22 21 21 20 20 20 20 20 20 20 20 20 20 20 19 19 19 19 17 16 16 17 16 17 16 15 14 14 15 15 16 16 15 15 15 16 16 17 17 17 16 16 16 17 17 16 15 15 16 17 17 18 18 18 18 18 18 18 19 20 20 21 22 22 23 23 23 23 23 23 22 21
26 26 25 23 23 24 24 24 24 24 25 25 25 24 23 22 21 21 22 22 22 22 21 21 21 21 20 20 20 20 19 18 17 17 17 18 18 17 15 15 16 16 17 17 17 17 17 18 18 18 18 18 19 20 19 19 18 19 19 18 17 18 19 19 19 19 19 19 19 20 19 19 20 20 22 24 25 25 25 25 24 24 24 23 23
28 27 25 24 24 25 25 25 25 25 25 26 26 26 25 24 23 23 23 23 23 23 23 23 23 22 22 22 21 21 21 20 19 19 19 19 20 19 19 19 19 19 19 19 18 18 18 19 20 21 21 21 20 21 21 20 19 20 20 21 21 21 21 21 21 21 21 21 21 21 21 20 20 21 23 24 25 25 25 24 24 25 25 24 24
32 29 26 25 25 26 26 26 26 27 26 26 27 27 27 27 25 24 24 24 24 24 24 25 24 23 23 23 23 22 22 21 21 20 20 21 22 22 22 22 21 21 20 20 19 19 20 20 21 21 22 22 21 20 20 21 21 20 21 22 23 22 22 22 23 23 23 22 22 22 21 21 22 23 25 25 24 23 22 22 23 24 25 25 25
33 33 29 27 27 27 27 27 27 28 28 28 27 27 28 28 27 26 25 26 26 25 25 26 25 25 25 24 24 23 22 22 22 22 22 23 24 23 22 22 22 22 22 21 21 20 21 21 22 22 22 23 22 22 22 22 22 23 23 23 23 23 23 23 24 24 24 24 23 23 23 24 25 25 26 25 24 22 22 22 22 24 25 25 26
31 35 34 31 29 29 28 28 28 28 29 29 29 29 29 28 28 27 27 27 27 27 27 27 27 27 26 25 25 23 22 23 24 23 24 24 24 24 24 24 23 23 23 22 21 20 22 22 22 22 23 23 24 24 24 24 25 25 26 25 25 25 25 25 25 25 26 26 25 24 25 26 27 27 27 27 26 25 25 25 24 25 27 27 28
27 32 36 36 34 31 30 29 29 29 29 30 30 30 30 29 29 29 29 29 28 28 28 28 29 28 27 27 26 25 23 25 26 25 25 26 25 25 26 26 26 25 23 22 22 23 24 24 23 23 24 25 25 25 25 26 26 27 27 27 27 27 27 26 27 27 28 27 25 25 26 28 29 29 30 31 31 30 30 29 28 28 29 31 32
24 28 33 37 37 35 33 31 30 30 30 30 31 31 31 31 30 30 30 30 29 29 29 30 30 30 29 29 28 26 25 27 28 27 27 28 27 28 28 28 28 27 25 25 26 27 27 26 25 24 24 26 26 26 26 26 27 28 29 29 30 30 29 29 29 30 30 29 28 28 29 31 32 31 32 33 34 34 35 35 34 33 33 33 35
25 26 29 33 36 38 38 35 32 31 31 31 31 31 31 32 32 32 32 31 31 31 32 32 31 31 31 31 30 29 28 30 31 30 30 31 30 30 30 29 29 28 28 29 29 28 27 27 26 25 26 27 28 28 28 28 28 28 29 30 31 32 33 33 32 33 32 31 30 31 33 34 35 35 35 35 35 35 35 36 36 36 37 37 37
25 26 28 30 33 37 39 39 36 34 32 32 31 31 31 32 33 34 34 33 33 34 34 34 33 33 33 33 32 31 31 32 33 33 33 33 33 33 32 30 30 29 30 31 30 29 28 28 27 27 27 28 29 30 30 30 29 29 29 31 32 33 34 35 35 35 34 33 33 34 36 37 39 39 38 37 36 36 36 37 38 39 40 41 40
27 27 27 28 30 34 38 40 40 38 35 33 32 31 31 32 33 34 34 35 35 35 36 36 35 35 35 35 34 33 34 35 35 36 36 36 36 35 33 31 31 31 31 32 31 30 30 30 29 28 28 28 30 31 31 31 31 31 31 31 32 33 34 35 36 37 37 38 39 39 39 39 40 40 40 40 39 39 39 39 40 41 42 43 42
28 27 27 28 28 31 35 39 41 41 39 36 34 33 33 33 33 33 34 34 35 36 36 36 37 37 37 37 36 36 37 37 37 38 39 39 38 36 34 33 33 32 32 31 31 32 32 31 31 31 30 31 31 32 33 34 33 33 32 32 33 34 35 35 36 37 38 39 38 38 39 40 41 42 42 42 41 41 41 40 40 42 42 42 41
29 28 28 28 28 28 30 34 39 41 41 39 37 36 36 35 35 35 35 35 34 35 36 37 38 38 38 38 39 39 40 40 40 40 41 41 39 37 35 34 34 35 34 33 33 34 35 34 33 33 33 33 33 34 34 35 35 34 33 33 33 35 36 37 37 37 36 35 34 36 40 42 42 43 42 41 41 41 41 41 41 40 40 39 37
28 29 29 29 29 29 29 31 34 38 40 40 41 40 40 40 40 38 37 35 34 34 36 37 38 39 39 39 40 41 42 42 42 42 41 41 39 37 37 37 36 36 37 36 37 38 38 36 36 36 36 36 35 35 36 36 36 36 37 37 37 38 39 39 39 38 37 34 34 37 40 41 41 41 41 41 41 41 40 40 39 37 36 34 32
29 29 30 30 29 30 30 30 31 34 37 40 42 44 44 44 43 42 40 37 36 36 36 37 38 38 39 40 41 42 43 43 43 43 42 42 40 39 39 40 39 38 38 38 40 40 39 38 37 37 38 38 37 37 38 38 39 40 41 41 40 40 41 41 42 40 37 35 35 38 41 42 41 41 40 40 39 38 37 36 34 32 30 29 28
30 30 30 30 30 30 30 31 32 33 35 37 39 42 44 45 46 45 43 40 39 39 38 38 37 37 39 41 42 43 43 44 44 44 44 43 41 40 41 43 43 42 42 42 42 42 41 40 40 39 40 40 39 40 40 42 43 44 43 42 41 40 40 40 40 38 36 35 37 40 42 42 41 40 39 37 35 33 32 31 29 27 27 27 27
31 30 30 30 30 30 30 31 32 33 35 36 37 38 41 44 46 46 46 44 43 42 42 40 38 38 40 41 42 43 44 44 45 45 44 44 44 43 43 44 44 44 44 45 45 44 44 43 43 42 42 42 41 42 43 44 45 45 44 41 39 38 38 38 38 37 36 36 39 41 43 42 40 38 36 33 30 28 27 25 25 26 26 26 27
32 31 31 31 31 31 31 31 31 32 33 35 34 35 37 41 44 46 48 48 46 45 44 42 40 40 41 42 42 43 45 45 46 46 45 45 45 47 47 46 46 46 46 47 47 47 47 46 45 45 45 44 44 44 45 45 44 42 41 39 38 38 37 37 37 38 38 39 40 41 40 37 35 32 30 27 25 25 24 24 25 26 26 27 28
33 32 31 31 31 31 31 30 30 31 32 33 32 32 34 38 42 45 48 49 49 47 46 45 43 42 42 43 44 45 46 45 45 47 47 46 47 50 51 50 49 49 49 49 49 49 49 48 47 46 46 47 46 45 45 44 41 39 38 38 38 37 37 37 38 38 38 37 35 32 29 27 26 24 23 23 23 24 24 25 26 26 27 28 29
34 33 32 32 31 31 31 30 30 30 31 31 31 32 34 36 38 41 45 48 48 47 47 46 45 44 44 45 47 47 46 46 46 47 50 52 52 52 51 51 52 52 51 51 50 50 50 49 48 47 46 45 45 45 44 41 38 36 37 36 35 35 35 36 35 34 32 30 27 25 23 22 21 21 21 22 22 23 24 25 27 28 29 31 32
35 35 34 33 32 32 31 31 31 31 30 30 31 33 34 35 36 38 41 43 44 45 46 46 46 46 47 49 51 49 48 48 49 49 52 54 55 54 53 54 54 54 53 53 51 50 49 49 48 46 44 43 43 44 42 37 35 34 34 33 33 33 32 31 30 27 26 24 22 20 20 19 19 20 21 22 24 25 27 29 30 32 33 34 35
34 36 36 35 34 33 32 31 31 31 31 31 32 33 34 35 36 37 37 38 41 42 44 44 44 45 47 49 50 51 50 49 50 51 54 56 56 56 56 57 56 56 56 54 51 48 47 48 47 45 43 43 43 41 37 33 32 32 31 30 29 28 26 24 23 21 20 19 18 18 19 20 21 23 24 26 28 29 31 32 33 34 35 36 38
33 34 36 36 36 35 34 32 32 32 32 32 33 33 34 36 38 39 38 38 39 41 42 43 44 44 46 47 50 51 51 49 49 51 53 54 55 56 56 55 54 54 53 52 51 50 49 48 46 45 43 42 40 36 32 28 27 26 25 24 23 22 21 21 20 19 18 18 19 20 21 23 25 27 28 30 31 33 34 35 36 37 38 39 40
32 33 34 35 36 35 34 33 32 32 33 34 35 35 35 36 38 40 40 40 41 41 42 44 44 44 46 48 50 51 50 48 49 51 52 54 56 57 56 54 52 51 50 49 50 50 48 45 43 42 41 38 33 29 25 22 21 20 20 19 19 19 19 19 19 19 19 20 22 23 25 27 29 31 32 34 35 35 36 37 38 39 41 42 43
29 30 32 33 34 35 34 33 33 32 33 35 36 37 37 37 38 39 40 42 43 42 43 44 43 43 48 51 51 51 51 49 48 49 50 52 55 56 55 53 51 49 46 44 44 43 41 40 39 38 35 30 25 21 19 18 18 18 17 17 17 17 18 18 19 21 22 23 25 27 29 31 32 34 35 36 37 38 39 40 41 42 43 44 46
26 27 29 31 33 33 33 33 33 32 32 34 36 37 37 37 38 38 39 40 41 42 46 47 44 44 53 61 59 54 51 48 47 46 46 45 46 47 47 46 45 43 39 38 38 38 38 38 37 32 27 22 19 18 18 17 17 17 16 17 17 18 19 21 22 24 25 27 29 30 32 34 35 36 38 38 39 40 41 42 43 44 46 47 48
24 25 26 28 30 31 32 32 33 32 31 32 33 35 36 36 39 40 39 38 39 43 48 53 52 49 55 60 56 47 43 43 44 44 43 41 40 40 40 39 39 39 37 37 38 38 38 36 31 25 19 17 16 16 16 16 16 16 16 18 19 20 22 24 25 27 28 30 31 33 34 36 37 38 39 40 41 42 43 44 46 47 48 49 50
22 23 25 26 27 29 30 31 31 32 31 29 29 31 31 31 34 39 39 37 37 37 38 42 45 44 43 44 42 40 41 42 43 43 41 38 37 37 36 36 36 36 37 37 36 34 32 28 23 18 16 14 14 14 15 15 16 17 18 19 21 23 25 26 28 29 30 32 33 35 36 37 39 40 41 42 43 44 45 46 48 49 50 51 52
19 21 23 23 25 26 27 28 29 30 30 29 29 29 27 25 26 29 30 30 30 29 28 27 28 30 32 34 37 39 39 39 38 38 37 37 36 36 35 34 33 33 32 31 29 25 21 18 15 14 13 13 13 14 14 15 17 19 20 22 24 25 26 27 29 30 31 33 35 36 38 39 40 42 43 44 45 46 47 48 49 50 51 52 52
17 18 19 21 22 23 23 24 25 25 27 28 28 27 25 24 24 25 26 27 28 28 28 27 26 27 30 34 36 37 37 36 36 35 35 34 33 32 30 28 27 25 23 21 18 15 13 12 11 11 11 12 13 14 16 18 19 21 23 24 25 26 27 28 30 32 34 35 37 38 40 41 42 43 44 45 46 47 48 49 50 51 51 52 53
16 15 15 16 17 18 19 19 19 19 19 21 21 20 18 18 17 18 18 20 20 20 21 22 24 25 28 30 32 34 34 34 33 31 29 27 25 23 22 20 18 17 15 13 12 11 10 10 10 11 12 13 15 16 18 20 22 23 24 25 26 27 29 31 33 34 36 38 39 40 42 43 44 45 46 46 47 48 49 50 50 51 51 52 54
18 18 17 14 13 13 13 14 14 15 14 14 15 14 14 13 13 12 12 13 14 14 15 16 18 19 20 20 21 22 21 21 20 20 18 17 16 15 15 14 13 12 11 10 10 10 10 10 11 12 14 15 17 19 20 22 23 24 25 27 28 30 32 34 36 37 38 40 41 42 43 44 45 46 46 47 48 49 49 50 50 52 53 55 56
19 20 20 19 17 15 13 11 11 12 12 12 11 11 12 13 14 14 15 15 15 15 15 14 14 14 14 13 13 13 13 14 14 13 13 13 13 12 12 11 11 11 10 10 11 11 11 12 13 14 16 18 19 21 22 24 25 26 28 29 31 33 34 36 38 39 40 42 43 44 45 45 46 46 47 48 48 48 49 50 52 54 55 57 59
20 21 21 21 20 18 15 13 12 12 12 12 12 12 14 16 17 18 18 17 17 17 16 16 15 14 13 12 12 12 12 12 12 12 11 11 11 10 10 10 10 10 10 11 11 12 13 15 16 18 20 21 22 23 24 25 27 28 30 31 33 35 37 39 40 41 42 43 44 45 45 46 46 46 47 47 48 49 50 52 54 56 57 59 61
23 22 21 21 21 19 17 15 14 13 13 13 14 15 16 17 18 19 18 18 17 17 17 16 14 13 13 12 12 12 12 11 11 11 10 10 10 10 10 10 11 11 11 12 13 14 16 17 19 20 21 22 23 24 25 27 29 30 32 34 36 38 39 41 42 43 44 44 44 45 45 45 46 46 47 48 49 51 52 54 56 58 59 60 61
24 23 22 22 21 20 19 17 15 14 15 16 17 19 20 20 19 19 18 18 18 17 17 16 15 14 14 13 13 12 12 11 11 10 10 10 10 10 11 11 11 12 13 15 16 17 18 19 20 21 22 23 25 26 28 30 31 33 35 37 38 40 41 42 43 43 43 44 44 44 45 45 46 47 48 49 51 53 54 56 58 59 61 61 62
25 25 24 24 23 23 22 20 19 17 17 18 20 21 22 21 20 19 18 18 18 17 17 16 16 15 15 15 14 14 13 12 12 11 11 11 11 11 12 13 14 15 16 18 18 19 20 21 22 23 24 25 27 29 30 32 34 36 37 39 40 41 41 42 42 43 43 43 44 44 45 46 47 48 49 51 53 55 57 59 60 61 61 62 62
25 25 25 26 25 23 22 22 22 21 19 20 22 23 23 22 21 20 19 18 18 18 17 16 16 16 16 16 15 15 14 14 14 13 13 13 14 15 15 16 17 18 19 19 20 20 21 22 23 25 26 27 29 31 33 34 36 37 38 39 40 41 41 42 42 43 43 44 44 45 46 47 48 50 52 53 56 58 59 60 61 61 61 61 61
24 25 26 26 25 24 23 25 26 24 22 22 23 24 24 24 22 20 19 20 19 18 17 16 16 16 16 16 16 15 15 15 15 15 15 16 16 17 17 18 18 19 19 20 20 21 22 24 25 26 28 30 31 33 35 36 37 38 39 40 40 41 41 42 42 43 43 44 44 45 47 49 51 53 55 56 58 59 60 60 60 60 59 59 58
25 25 26 26 26 26 26 26 26 26 25 23 23 23 23 23 22 21 21 21 20 19 18 19 19 18 18 17 16 15 15 15 15 15 16 16 17 17 17 18 18 19 20 21 22 23 24 25 27 29 30 32 34 35 36 37 38 38 39 39 40 40 41 42 42 43 43 45 46 48 50 52 53 55 57 58 58 59 59 59 58 57 57 56 54
24 25 26 26 26 27 26 26 25 26 25 23 22 22 23 24 25 24 23 22 21 21 21 21 20 19 18 17 17 17 17 17 17 17 17 17 18 18 18 19 20 21 22 23 23 25 26 27 29 31 32 34 35 36 37 37 38 38 38 39 40 41 41 42 43 44 45 47 48 50 52 54 55 56 57 57 57 57 57 56 55 54 52 51 49
21 23 24 24 25 25 26 26 26 27 27 26 25 25 26 28 29 28 25 23 23 24 23 22 21 21 21 20 20 20 19 18 17 17 17 18 18 19 20 20 21 22 23 24 25 26 28 30 31 32 33 34 35 36 36 37 37 38 39 40 40 41 42 43 44 45 47 49 50 52 53 54 55 55 55 55 55 54 53 52 50 49 48 47 45
18 19 21 22 22 23 24 25 26 28 28 28 28 29 31 33 33 30 27 26 25 24 24 24 24 24 23 23 22 20 19 17 17 17 18 18 19 20 20 21 22 23 24 26 27 29 30 32 32 33 34 34 35 35 36 37 38 38 39 40 41 41 43 44 45 47 49 50 51 52 53 53 53 52 52 51 51 50 49 47 46 45 44 43 42
16 17 18 19 19 20 21 23 25 25 25 27 30 33 35 35 33 30 28 27 26 25 25 26 26 25 24 22 20 18 17 16 17 17 17 18 19 20 21 22 24 26 27 29 30 31 32 32 33 33 34 34 35 35 36 37 38 39 40 40 41 42 44 45 47 48 50 51 51 51 51 50 49 49 48 48 47 46 45 44 44 43 42 40 37
13 14 16 18 19 20 21 22 23 22 21 23 27 31 32 31 29 27 26 25 25 25 26 27 27 26 24 21 19 17 17 16 17 17 19 20 22 23 25 26 28 29 30 31 31 32 32 32 32 33 33 34 35 36 37 38 39 39 40 41 42 44 45 46 48 49 49 50 49 48 47 46 46 45 45 44 44 43 43 43 42 40 38 35 32
Wind_Direction
232 228 225 227 231 233 234 231 224 216 212 211 210 207 207 208 209 211 213 213 212 212 211 209 209 210 211 212 213 213 214 215 215 215 213 213 217 220 221 222 224 227 230 233 240 258 276 280 282 287 289 294 301 302 303 304 302 297 297 300 303 306 310 313 316 319 323 324 323 322 322 323 324 324 322 322 323 323 322 322 323 323 322 321 322
234 231 226 224 227 230 233 233 229 223 217 214 213 209 207 207 206 208 211 212 211 211 212 212 212 213 214 215 216 216 217 216 217 218 217 217 218 220 223 226 228 232 236 243 253 258 254 251 256 267 275 282 289 290 292 299 299 297 298 300 302 304 306 309 311 314 318 319 320 320 320 319 319 319 318 318 321 321 321 321 322 323 323 321 321
235 234 229 225 224 225 229 232 232 229 222 217 216 213 210 208 207 208 209 210 211 212 215 217 216 217 218 219 220 220 220 220 221 222 223 224 226 230 235 237 238 238 241 246 250 251 252 254 260 267 272 277 281 282 285 291 292 291 293 296 297 299 302 303 305 309 311 313 315 315 315 316 316 317 317 316 318 318 318 318 317 319 321 319 318
234 235 233 229 225 223 225 229 231 231 228 223 220 217 214 212 209 209 209 210 212 214 217 221 222 222 222 222 224 224 224 224 225 228 232 237 243 248 253 257 260 263 264 259 255 255 257 258 261 264 268 271 272 274 282 287 286 284 287 290 293 295 296 297 299 302 304 306 308 310 312 313 313 314 313 312 312 312 311 312 312 313 315 314 312
235 236 236 234 231 226 224 226 228 231 231 229 226 222 220 218 215 214 213 213 216 218 220 223 226 227 227 226 227 228 229 229 230 234 236 237 238 241 245 251 257 264 269 266 259 257 257 257 259 262 265 268 268 270 278 283 285 286 287 289 291 291 291 292 293 295 298 301 304 306 308 310 311 312 312 311 310 310 310 311 310 310 310 310 309
239 239 239 239 237 233 228 226 227 230 231 231 230 227 225 223 221 219 218 218 220 222 224 226 229 230 231 230 231 232 233 233 234 235 235 235 237 238 239 243 248 253 257 259 259 262 265 266 266 265 265 267 268 272 278 283 285 289 290 290 291 292 292 294 295 297 300 302 303 305 307 309 311 313 315 314 313 313 313 314 312 310 308 306 306
241 241 241 241 240 239 236 231 228 229 231 232 233 231 230 229 227 226 224 224 225 226 228 230 232 233 233 234 235 236 237 236 236 236 236 238 242 241 241 244 249 254 255 258 262 267 270 272 273 272 271 273 274 277 284 287 286 288 290 291 294 296 296 296 297 300 302 302 302 301 303 307 310 313 315 314 312 312 312 313 311 308 305 303 303
238 240 241 241 240 240 240 238 233 231 232 233 235 234 232 231 231 231 230 230 230 231 232 234 234 234 235 236 237 238 239 238 237 238 241 244 245 245 246 249 251 254 257 260 263 267 270 273 277 278 277 277 276 275 279 283 285 287 288 289 294 297 297 297 296 296 297 297 296 296 297 301 304 308 310 309 308 307 308 308 307 306 304 302 300
234 239 241 240 240 240 240 240 239 236 234 235 236 237 235 233 232 233 234 235 235 235 236 237 237 236 236 237 238 239 240 241 240 242 244 247 249 250 251 252 253 255 258 261 263 268 271 273 277 280 280 279 276 274 276 279 283 284 284 285 289 291 292 293 293 292 292 293 293 293 294 296 299 303 307 306 304 304 306 308 307 305 304 303 301
232 236 239 240 240 241 241 241 241 240 238 237 237 238 239 237 234 232 234 237 239 239 239 240 240 238 238 239 240 241 243 245 246 246 247 248 250 252 254 256 258 260 261 262 264 267 269 272 275 278 280 279 278 278 278 280 283 283 283 285 286 287 288 290 291 291 292 293 293 293 294 294 296 302 306 306 304 302 303 307 309 308 306 305 303
234 235 237 238 239 240 241 241 241 241 240 239 238 238 240 240 238 235 234 236 239 240 241 242 242 241 241 242 244 245 247 249 249 248 248 248 251 254 256 258 260 261 262 263 263 265 267 270 273 277 280 282 283 282 279 279 281 282 283 284 284 285 287 289 291 292 292 292 291 291 292 293 295 299 303 304 301 299 299 302 307 309 308 307 306
237 236 237 238 238 238 239 240 240 240 240 240 239 238 239 240 240 238 236 236 237 238 240 242 243 243 244 246 248 248 249 250 248 247 247 248 251 255 256 257 259 261 262 262 264 266 266 269 272 275 278 279 280 280 279 280 281 282 283 283 284 284 285 288 290 290 290 291 289 288 289 292 294 297 299 299 297 295 294 296 301 305 305 305 304
239 236 235 237 238 239 239 238 239 240 240 240 240 239 239 239 239 239 238 237 237 237 239 241 243 245 246 248 250 249 249 249 249 248 248 250 252 254 256 257 259 261 262 265 267 266 266 270 274 277 278 279 279 280 281 282 283 284 284 285 286 285 285 288 291 290 289 289 287 287 290 291 294 296 297 296 295 292 290 291 295 300 301 300 300
239 235 234 235 237 239 240 238 237 238 238 239 241 241 240 239 239 239 239 239 239 239 240 241 243 245 247 248 249 248 248 249 249 248 249 251 252 253 255 257 258 260 263 267 267 265 266 271 275 277 279 280 281 282 283 284 284 286 288 290 290 289 288 291 293 290 289 287 285 287 290 291 294 297 297 297 297 294 288 286 289 294 295 295 295
239 237 235 234 236 238 238 238 237 237 237 238 239 241 242 242 241 241 240 240 239 239 240 241 241 244 246 247 247 247 247 248 249 249 250 251 253 254 255 257 258 260 262 264 264 264 266 270 272 273 273 275 278 281 283 283 285 287 290 292 292 292 291 292 291 290 290 288 286 288 289 290 292 295 296 297 299 297 292 286 285 289 293 293 293
240 238 237 236 236 237 237 236 236 236 236 237 237 239 241 242 243 243 242 241 240 240 241 242 242 243 245 247 247 247 248 250 251 252 252 253 254 256 256 258 259 260 261 262 263 264 266 266 266 267 269 274 278 280 281 283 285 287 289 290 290 291 291 290 290 291 291 289 289 290 289 289 291 294 295 295 295 295 293 289 284 285 291 294 293
239 240 239 238 238 239 238 236 234 234 236 237 237 238 239 241 243 244 244 244 243 243 243 244 244 245 245 246 247 247 249 251 253 255 256 256 257 257 259 260 261 260 260 261 264 265 265 264 265 265 267 271 274 277 279 282 284 286 287 288 289 289 290 290 290 290 290 289 290 292 292 291 292 293 293 293 293 293 292 290 286 285 289 292 291
237 239 241 241 241 241 239 237 235 234 235 237 238 239 239 240 241 243 244 245 245 246 247 247 247 247 247 248 248 248 248 249 251 253 255 257 258 259 260 261 260 259 260 263 266 267 266 266 267 268 269 270 272 275 278 281 283 284 285 287 288 289 290 290 290 291 292 293 294 295 295 295 293 293 292 291 292 292 292 291 288 287 288 288 288
237 238 240 242 242 242 240 238 236 236 237 239 240 241 241 241 241 242 243 244 245 247 248 248 248 249 249 250 250 250 250 250 250 251 253 256 258 261 261 261 260 260 260 262 264 266 266 267 267 268 271 273 275 276 278 280 281 282 282 284 287 288 289 290 292 293 294 295 296 296 296 296 294 293 292 290 289 290 291 291 288 287 286 287 287
239 238 239 240 241 242 242 240 237 237 238 240 242 243 242 241 241 242 243 243 244 245 247 249 250 250 251 251 251 252 252 252 252 253 254 256 258 259 259 259 259 258 258 259 262 264 265 267 268 268 270 273 275 276 277 279 281 282 282 283 284 287 289 290 291 291 290 290 293 295 295 294 293 291 290 288 288 289 290 288 285 283 283 283 283
242 241 240 240 241 242 243 242 241 240 240 240 242 242 243 242 242 243 243 243 243 244 246 248 249 251 252 253 253 253 254 254 255 255 256 256 257 257 258 258 258 258 260 262 264 265 265 266 268 269 271 273 274 276 278 280 283 283 282 283 284 287 288 288 288 289 288 289 290 290 289 289 289 287 285 285 285 285 285 283 280 279 279 279 280
246 244 242 242 242 242 243 244 244 244 243 243 243 243 242 242 242 242 243 243 243 243 245 246 248 250 252 254 255 255 255 256 256 256 256 257 257 257 257 258 259 261 263 265 265 266 266 267 269 272 274 275 275 276 277 280 283 285 284 284 285 286 286 286 286 287 286 286 286 286 286 286 285 283 282 281 280 279 279 278 278 279 280 282 284
248 247 246 244 244 243 243 244 245 246 246 246 245 244 243 242 241 241 243 243 243 244 245 247 248 250 252 253 255 256 257 257 258 258 258 259 260 259 257 258 259 262 264 265 267 268 268 269 271 273 275 276 277 277 277 280 283 285 284 284 284 284 284 284 284 285 285 284 284 284 284 284 282 280 280 279 277 277 278 279 281 283 285 286 287
247 249 248 247 246 245 244 244 246 248 249 248 248 246 244 242 240 240 241 243 243 244 245 247 249 251 252 253 254 256 257 258 258 259 261 261 262 261 261 261 261 263 264 265 267 268 269 269 271 272 274 275 276 276 278 280 282 282 281 281 281 281 282 282 283 284 284 284 282 281 280 280 280 280 281 280 280 281 282 283 284 284 285 286 287
245 247 248 247 247 248 248 247 246 248 250 251 252 249 246 243 241 239 241 243 243 243 244 246 249 252 254 255 255 256 259 260 259 260 261 260 260 261 263 263 264 264 264 264 265 267 268 269 270 271 273 275 275 276 277 279 279 277 277 278 278 279 280 281 281 281 280 279 278 278 279 281 282 284 284 284 284 284 284 285 286 287 287 289 290
242 244 246 247 248 249 251 252 251 249 250 251 252 251 249 246 243 241 242 243 244 244 244 246 250 253 255 257 257 258 260 260 259 259 259 259 259 261 263 264 266 265 264 264 264 265 267 269 271 272 275 275 274 274 275 275 274 274 275 276 277 278 278 277 277 277 277 277 279 280 283 284 285 286 287 288 289 291 292 294 295 296 297 297 298
241 242 244 246 248 249 252 254 254 253 251 251 251 251 250 248 246 243 242 243 244 244 245 248 251 253 253 255 256 258 259 259 257 256 256 258 260 261 262 264 265 266 265 264 264 264 267 269 271 272 274 274 273 271 270 269 270 272 274 275 275 276 276 277 277 278 279 281 282 283 285 286 289 292 296 298 300 301 301 301 301 300 300 300 300
241 241 243 245 247 248 251 254 256 256 254 252 251 251 250 249 247 245 242 242 244 244 245 248 251 253 253 255 256 256 255 255 256 257 256 258 260 261 261 263 263 264 264 264 264 265 268 271 272 272 271 270 268 265 262 262 266 270 271 272 273 274 275 276 277 278 279 281 283 285 290 294 298 302 303 303 303 302 301 300 299 299 299 299 299
242 241 242 243 245 247 250 253 257 258 257 255 254 252 251 250 249 247 244 243 245 247 248 248 249 251 253 255 257 258 257 254 253 253 253 255 258 260 260 260 260 261 263 265 265 267 270 272 271 269 266 263 260 257 256 259 263 265 267 267 268 269 271 274 277 280 285 289 293 297 300 302 303 303 302 301 301 300 300 300 300 300 300 300 301
243 242 242 243 244 246 248 252 256 259 259 258 257 255 253 251 250 248 245 242 243 246 249 251 253 254 255 255 257 258 257 253 252 251 252 253 256 258 258 258 260 264 266 267 266 267 268 267 265 261 258 254 251 252 254 256 257 259 261 263 265 269 274 279 285 291 296 299 301 302 302 302 301 301 301 301 301 301 301 301 301 301 301 302 302
245 244 243 243 244 245 246 250 254 258 260 259 256 253 251 251 250 249 246 242 240 241 245 248 250 251 253 254 253 250 250 252 255 257 257 257 256 257 258 261 264 266 265 263 262 262 261 259 256 252 248 245 243 244 247 248 250 254 258 263 270 277 284 290 295 298 299 300 300 300 300 300 301 301 301 302 301 302 302 302 302 302 302 303 303
246 244 244 243 243 244 245 248 251 256 259 259 255 251 250 251 252 250 245 241 238 238 241 242 242 241 241 242 242 244 248 253 257 259 262 263 261 258 258 259 259 259 257 256 256 256 255 252 248 242 237 234 234 236 239 244 250 257 264 273 281 287 292 295 296 296 297 297 297 298 299 300 301 301 301 302 302 302 302 303 303 303 303 303 304
247 245 245 244 243 243 243 245 249 253 257 257 255 251 251 253 252 248 243 240 239 239 238 237 235 234 234 234 236 241 247 251 254 256 260 262 260 256 253 253 253 254 255 255 254 252 248 244 237 229 226 228 232 237 243 251 260 269 277 284 288 290 292 292 292 293 295 295 297 298 298 299 300 300 301 301 302 302 303 303 303 304 304 305 306
248 247 247 247 246 245 245 246 249 253 257 258 255 252 252 254 251 243 237 234 235 236 235 231 228 229 231 233 237 243 246 249 253 255 255 253 252 251 250 252 254 255 254 252 247 242 237 232 225 220 222 228 236 246 255 264 272 279 283 286 287 288 289 290 291 293 294 295 297 298 298 299 300 300 301 301 302 302 303 303 304 305 306 306 306
249 249 250 250 250 249 249 250 251 253 256 259 260 259 262 267 264 254 245 242 245 251 258 259 254 250 250 249 248 248 249 252 254 253 250 248 248 249 250 251 250 247 244 240 235 229 225 222 222 226 233 242 252 262 269 275 280 283 285 286 286 287 289 291 292 294 295 296 297 298 299 300 300 301 301 302 302 303 304 305 305 306 306 306 306
251 250 251 251 251 251 251 251 253 254 255 259 264 269 272 276 277 274 270 268 269 270 273 275 273 267 260 256 253 253 254 256 254 251 249 247 246 245 244 241 236 232 228 224 221 220 221 225 232 242 252 261 269 274 279 282 283 284 285 286 287 289 291 293 294 296 297 298 299 300 300 301 301 302 302 303 303 304 304 305 304 305 305 306 306
249 250 252 251 250 250 250 249 249 251 254 257 264 273 278 278 276 275 272 270 269 266 262 260 257 253 251 251 251 252 253 252 250 247 244 241 238 235 230 226 223 221 220 219 221 226 231 238 247 256 264 270 276 280 283 284 284 285 287 288 290 292 293 295 297 298 299 300 300 301 301 301 302 302 303 303 304 304 304 304 304 305 306 307 308
248 249 254 256 254 253 253 250 247 247 250 254 259 267 275 277 276 273 271 268 263 257 251 248 246 244 244 246 247 248 250 250 248 246 244 241 239 237 235 234 233 234 234 234 237 241 246 254 261 267 273 278 281 283 283 284 284 286 288 289 292 294 296 297 298 299 300 301 301 301 302 302 303 303 303 303 303 303 304 305 306 307 308 308 308
249 247 250 255 260 262 262 258 254 250 249 250 254 261 269 275 277 277 276 272 268 262 257 254 252 251 250 249 249 252 255 255 254 254 253 252 251 251 250 248 246 245 246 247 248 252 259 265 270 275 278 280 281 281 282 284 285 287 289 291 293 295 297 298 300 301 301 302 302 303 303 302 302 302 302 303 303 305 306 307 307 307 308 308 308
252 251 251 253 257 259 257 254 253 254 255 256 260 267 274 279 281 281 278 274 269 265 262 259 258 258 260 259 256 255 254 253 253 252 251 250 250 249 248 247 247 247 249 252 256 263 269 272 274 276 278 279 280 281 283 285 287 289 291 293 296 298 300 301 302 302 302 302 302 302 301 301 301 302 303 304 306 307 307 307 307 307 308 308 309
253 254 254 254 255 256 255 251 247 250 258 263 266 269 274 278 278 277 274 270 266 263 261 261 262 263 263 262 260 258 255 251 247 243 241 240 240 240 240 242 245 250 255 261 266 270 273 274 276 277 279 280 282 284 286 288 290 293 295 298 299 301 301 301 301 301 301 300 300 300 301 302 303 304 305 306 307 307 307 307 308 309 310 310 311
249 251 254 256 258 259 260 257 253 252 259 266 269 269 269 271 272 270 266 262 258 256 255 257 260 262 262 260 258 255 250 245 240 237 236 236 238 241 245 249 254 259 263 267 269 271 273 276 278 280 282 284 285 287 290 292 294 296 297 298 299 299 299 299 299 299 299 300 301 302 303 304 305 306 306 306 306 307 308 309 310 311 312 312 313
248 248 250 253 257 261 264 266 265 264 266 270 270 267 264 263 262 261 258 256 255 254 252 250 250 250 249 249 248 247 245 243 241 241 242 243 246 250 254 258 261 264 266 268 271 273 276 279 281 282 284 286 287 289 291 293 294 295 296 297 297 297 298 298 299 300 301 302 303 304 305 305 305 306 306 306 307 309 310 311 312 312 313 313 314
250 248 248 250 253 256 258 260 261 261 264 267 266 262 256 252 249 247 247 249 250 250 249 247 245 243 240 238 237 237 238 238 240 241 243 247 250 253 256 260 263 266 268 271 273 276 278 280 281 282 284 286 288 290 292 293 294 295 296 296 297 298 299 300 301 302 303 303 304 304 305 306 306 306 307 308 309 310 311 312 313 313 314 314 314
251 250 249 248 248 247 246 249 254 256 258 261 262 258 251 244 239 238 239 241 241 242 243 243 244 244 242 239 237 235 236 238 240 243 247 250 253 256 258 261 264 266 269 272 274 276 277 279 281 283 286 289 290 292 293 294 295 296 297 298 299 300 301 302 302 303 303 304 305 306 306 307 307 308 308 309 310 311 312 313 314 314 314 314 314
251 250 249 248 247 245 243 246 251 253 254 257 262 263 258 251 245 242 240 239 239 241 244 244 243 243 242 242 242 242 242 244 246 248 250 253 255 258 260 263 266 268 271 273 274 277 279 282 285 287 289 291 292 293 294 295 296 297 298 299 300 301 301 302 303 304 305 306 307 307 307 308 308 309 309 310 311 312 313 314 315 315 315 314 314
251 250 249 247 247 245 243 243 247 250 252 256 264 268 266 263 259 253 247 245 248 251 251 249 245 242 240 241 241 241 241 243 245 248 252 255 258 261 264 266 269 271 273 275 278 281 283 286 288 289 290 292 293 294 295 296 297 299 300 301 301 302 303 304 305 306 307 307 307 308 308 308 309 310 311 312 313 314 315 316 316 315 315 314 313
250 250 249 247 246 246 243 240 241 247 252 257 262 264 264 263 260 254 248 246 248 249 249 247 245 241 238 238 239 240 242 245 248 253 256 260 263 265 267 269 272 274 277 280 283 285 286 288 289 291 292 293 295 296 297 298 299 300 301 303 304 304 305 306 306 307 307 308 308 308 309 309 310 311 313 314 316 316 317 316 316 315 314 313 312
249 249 248 246 246 245 240 237 240 246 251 255 258 261 261 259 255 251 248 247 248 248 247 246 244 242 241 241 242 245 248 250 253 257 260 263 265 267 270 273 276 279 281 283 285 287 288 290 291 293 294 295 296 297 298 300 301 302 304 304 305 306 306 307 307 308 308 308 308 309 310 311 313 314 316 317 317 317 317 316 315 314 313 313 312
250 248 246 245 244 241 238 237 240 247 253 256 257 258 258 257 253 251 252 254 255 254 252 249 246 245 244 242 242 244 247 250 254 258 261 263 266 269 273 276 279 281 283 286 287 289 291 292 293 294 295 296 297 299 300 302 303 304 305 306 306 307 307 308 308 308 308 308 309 310 312 314 316 317 318 318 318 318 317 316 315 314 314 313 313
246 244 243 240 237 234 233 234 236 242 252 260 261 260 260 260 259 257 259 263 266 266 262 257 254 249 244 239 236 237 242 247 252 256 260 264 268 272 276 279 282 285 287 288 290 291 292 293 293 295 296 298 300 302 303 304 305 305 306 306 307 307 307 307 307 308 308 310 312 314 316 317 318 319 319 319 318 317 316 315 315 315 315 314 314